• In Hungary
  • List of Countries
  • For 7 days
  • Water Temperature
  • Satellite Maps
  • Weather Map
  • News
  • Weather Widgets
  • user-avatar
    Login

    Hourly Weather Natalinka

    Today, 22 August, Wednesday

    Time Temperature Precipitation Wind Pressure Humidity
    00:00 +14°C° 0 mm 3 mps 739 mmHg 88%
    01:00 +14°C° 0 mm 3 mps 739 mmHg 88%
    02:00 +13°C° 0 mm 3 mps 739 mmHg 88%
    03:00 +13°C° 0 mm 2 mps 740 mmHg 91%
    04:00 +12°C° 0 mm 3 mps 740 mmHg 90%
    05:00 +11°C° 0 mm 3 mps 740 mmHg 89%
    06:00 +11°C° 0 mm 4 mps 740 mmHg 88%
    07:00 +12°C° 0 mm 4 mps 741 mmHg 81%
    08:00 +13°C° 0 mm 5 mps 741 mmHg 75%
    09:00 +15°C° 0 mm 6 mps 741 mmHg 68%
    10:00 +16°C° 0 mm 6 mps 742 mmHg 63%
    11:00 +17°C° 0 mm 6 mps 742 mmHg 58%
    12:00 +19°C° 0 mm 6 mps 742 mmHg 54%
    13:00 +19°C° 0 mm 6 mps 742 mmHg 52%
    14:00 +19°C° 0 mm 6 mps 743 mmHg 51%
    15:00 +20°C° 0 mm 6 mps 743 mmHg 50%
    16:00 +19°C° 0 mm 5 mps 743 mmHg 53%
    17:00 +19°C° 0 mm 4 mps 743 mmHg 57%
    18:00 +19°C° 0 mm 4 mps 744 mmHg 60%
    19:00 +17°C° 0 mm 4 mps 744 mmHg 63%
    20:00 +15°C° 0 mm 4 mps 745 mmHg 65%
    21:00 +13°C° 0 mm 4 mps 745 mmHg 68%
    22:00 +12°C° 0 mm 3 mps 745 mmHg 70%
    23:00 +12°C° 0 mm 3 mps 746 mmHg 72%

    Tomorrow, 23 August, Thursday

    Time Temperature Precipitation Wind Pressure Humidity
    00:00 +11°C° 0 mm 3 mps 746 mmHg 73%
    01:00 +10°C° 0 mm 3 mps 746 mmHg 75%
    02:00 +10°C° 0 mm 3 mps 747 mmHg 76%
    03:00 +9°C° 0 mm 3 mps 747 mmHg 77%
    04:00 +9°C° 0 mm 3 mps 747 mmHg 78%
    05:00 +9°C° 0 mm 3 mps 747 mmHg 79%
    06:00 +9°C° 0 mm 2 mps 748 mmHg 80%
    07:00 +12°C° 0 mm 2 mps 748 mmHg 74%
    08:00 +14°C° 0 mm 2 mps 748 mmHg 68%
    09:00 +15°C° 0 mm 2 mps 748 mmHg 62%
    10:00 +17°C° 0 mm 3 mps 748 mmHg 57%
    11:00 +18°C° 0 mm 3 mps 748 mmHg 52%
    12:00 +19°C° 0 mm 3 mps 748 mmHg 47%
    13:00 +19°C° 0 mm 3 mps 748 mmHg 46%
    14:00 +20°C° 0 mm 3 mps 748 mmHg 45%
    15:00 +20°C° 0 mm 3 mps 748 mmHg 44%
    16:00 +20°C° 0 mm 3 mps 748 mmHg 48%
    17:00 +20°C° 0 mm 2 mps 747 mmHg 53%
    18:00 +19°C° 0 mm 2 mps 747 mmHg 57%
    19:00 +18°C° 0 mm 2 mps 747 mmHg 60%
    20:00 +16°C° 0 mm 2 mps 747 mmHg 64%
    21:00 +14°C° 0 mm 1 mps 748 mmHg 67%
    22:00 +14°C° 0 mm 2 mps 748 mmHg 68%
    23:00 +13°C° 0 mm 2 mps 748 mmHg 70%

    Day after tomorrow, 24 August, Friday

    Time Temperature Precipitation Wind Pressure Humidity
    00:00 +13°C° 0 mm 2 mps 748 mmHg 71%
    01:00 +13°C° 0 mm 2 mps 748 mmHg 73%
    02:00 +12°C° 0 mm 2 mps 748 mmHg 74%
    03:00 +12°C° 0 mm 2 mps 748 mmHg 75%
    04:00 +12°C° 0 mm 2 mps 748 mmHg 76%
    05:00 +12°C° 0 mm 2 mps 748 mmHg 77%
    06:00 +10°C° 0 mm 2 mps 748 mmHg 78%
    07:00 +13°C° 0 mm 2 mps 748 mmHg 72%
    08:00 +15°C° 0 mm 2 mps 748 mmHg 67%
    09:00 +17°C° 0 mm 2 mps 748 mmHg 61%
    10:00 +19°C° 0 mm 2 mps 748 mmHg 56%
    11:00 +20°C° 0 mm 2 mps 747 mmHg 52%
    12:00 +21°C° 0 mm 2 mps 747 mmHg 48%
    13:00 +23°C° 0 mm 2 mps 747 mmHg 47%
    14:00 +22°C° 0 mm 3 mps 747 mmHg 45%
    15:00 +24°C° 0 mm 3 mps 747 mmHg 44%
    16:00 +23°C° 0 mm 2 mps 746 mmHg 48%
    17:00 +23°C° 0 mm 2 mps 746 mmHg 51%
    18:00 +23°C° 0 mm 1 mps 746 mmHg 55%
    19:00 +21°C° 0 mm 1 mps 746 mmHg 59%
    20:00 +19°C° 0 mm 1 mps 746 mmHg 62%
    21:00 +16°C° 0 mm 1 mps 746 mmHg 65%
    22:00 +16°C° 0 mm 1 mps 746 mmHg 67%
    23:00 +15°C° 0 mm 1 mps 746 mmHg 68%

    25 August, Saturday

    Time Temperature Precipitation Wind Pressure Humidity
    00:00 +15°C° 0 mm 1 mps 746 mmHg 69%
    01:00 +15°C° 0 mm 1 mps 746 mmHg 70%
    02:00 +14°C° 0 mm 1 mps 745 mmHg 70%
    03:00 +14°C° 0 mm 1 mps 745 mmHg 71%
    04:00 +14°C° 0 mm 1 mps 745 mmHg 72%
    05:00 +13°C° 0 mm 1 mps 745 mmHg 72%
    06:00 +13°C° 0 mm 1 mps 745 mmHg 73%
    07:00 +15°C° 0 mm 1 mps 745 mmHg 67%
    08:00 +17°C° 0 mm 2 mps 745 mmHg 61%
    09:00 +19°C° 0 mm 2 mps 745 mmHg 56%
    10:00 +21°C° 0 mm 2 mps 745 mmHg 51%
    11:00 +23°C° 0 mm 2 mps 745 mmHg 47%
    12:00 +24°C° 0 mm 2 mps 745 mmHg 43%
    13:00 +25°C° 0 mm 2 mps 745 mmHg 42%
    14:00 +25°C° 0 mm 2 mps 745 mmHg 40%
    15:00 +26°C° 0 mm 2 mps 744 mmHg 39%
    16:00 +25°C° 0 mm 2 mps 744 mmHg 43%
    17:00 +25°C° 0 mm 2 mps 744 mmHg 46%
    18:00 +24°C° 0 mm 1 mps 744 mmHg 50%
    19:00 +22°C° 0 mm 1 mps 744 mmHg 52%
    20:00 +21°C° 0 mm 1 mps 744 mmHg 54%
    21:00 +19°C° 0 mm 1 mps 744 mmHg 57%
    22:00 +17°C° 0 mm 2 mps 744 mmHg 58%
    23:00 +17°C° 0 mm 2 mps 744 mmHg 59%

    26 August, Sunday

    Time Temperature Precipitation Wind Pressure Humidity
    00:00 +16°C° 0 mm 2 mps 744 mmHg 60%
    01:00 +16°C° 0 mm 2 mps 744 mmHg 61%
    02:00 +16°C° 0 mm 2 mps 744 mmHg 62%
    03:00 +15°C° 0 mm 2 mps 744 mmHg 63%
    04:00 +15°C° 0 mm 2 mps 744 mmHg 64%
    05:00 +15°C° 0 mm 2 mps 744 mmHg 66%
    06:00 +15°C° 0 mm 2 mps 744 mmHg 67%
    07:00 +16°C° 0 mm 2 mps 745 mmHg 63%
    08:00 +18°C° 0 mm 2 mps 745 mmHg 59%
    09:00 +20°C° 0 mm 2 mps 745 mmHg 55%
    10:00 +23°C° 0 mm 2 mps 745 mmHg 51%
    11:00 +24°C° 0 mm 3 mps 745 mmHg 47%
    12:00 +26°C° 0 mm 3 mps 745 mmHg 43%
    13:00 +26°C° 0 mm 3 mps 744 mmHg 42%
    14:00 +26°C° 0 mm 3 mps 744 mmHg 41%
    15:00 +27°C° 0 mm 3 mps 744 mmHg 40%
    16:00 +26°C° 0 mm 2 mps 744 mmHg 43%
    17:00 +26°C° 0 mm 2 mps 744 mmHg 47%
    18:00 +25°C° 0 mm 2 mps 743 mmHg 51%
    19:00 +23°C° 0 mm 2 mps 743 mmHg 54%
    20:00 +21°C° 0 mm 2 mps 743 mmHg 56%
    21:00 +19°C° 0 mm 2 mps 743 mmHg 59%
    22:00 +18°C° 0 mm 2 mps 744 mmHg 61%
    23:00 +18°C° 0 mm 2 mps 744 mmHg 62%

    27 August, Monday

    Time Temperature Precipitation Wind Pressure Humidity
    00:00 +17°C° 0 mm 2 mps 744 mmHg 64%
    01:00 +17°C° 0 mm 2 mps 744 mmHg 66%
    02:00 +17°C° 0 mm 2 mps 744 mmHg 68%
    03:00 +16°C° 0 mm 2 mps 744 mmHg 70%
    04:00 +16°C° 0 mm 2 mps 744 mmHg 72%
    05:00 +16°C° 0 mm 2 mps 744 mmHg 75%
    06:00 +16°C° 0 mm 2 mps 744 mmHg 77%
    07:00 +18°C° 0 mm 2 mps 744 mmHg 72%
    08:00 +20°C° 0 mm 2 mps 745 mmHg 68%
    09:00 +21°C° 0 mm 3 mps 745 mmHg 64%
    10:00 +24°C° 0 mm 3 mps 745 mmHg 58%
    11:00 +25°C° 0 mm 3 mps 745 mmHg 53%
    12:00 +27°C° 0 mm 3 mps 745 mmHg 48%
    13:00 +27°C° 0 mm 3 mps 745 mmHg 47%
    14:00 +28°C° 0 mm 3 mps 745 mmHg 45%
    15:00 +28°C° 0 mm 3 mps 745 mmHg 44%
    16:00 +27°C° 0 mm 3 mps 745 mmHg 47%
    17:00 +27°C° 0 mm 2 mps 745 mmHg 51%
    18:00 +26°C° 0 mm 2 mps 744 mmHg 55%
    19:00 +24°C° 0 mm 2 mps 745 mmHg 58%
    20:00 +23°C° 0 mm 2 mps 745 mmHg 61%
    21:00 +20°C° 0 mm 2 mps 745 mmHg 64%
    22:00 +20°C° 0 mm 2 mps 745 mmHg 66%
    23:00 +19°C° 0 mm 2 mps 745 mmHg 68%
    Show more